Terminal Aerodrome Forecast
Issued by NWS Jackson, MS

Home | Current Version | Previous Version | Text Only | Print | Product List | Glossary On
Versions: 1 2 3 4 5 6 7 8 9 10 11 12 13 14 15
000
FTUS44 KJAN 291138
TAFGWO
TAF
KGWO 291138Z 2912/3012 13005KT P6SM OVC025
     FM291500 18015G21KT P6SM SCT040 BKN250
     FM300100 18007KT P6SM SCT050 OVC100
     FM300500 20010KT P6SM VCTS SCT025CB OVC050
     FM300800 21007KT 3SM TSRA OVC025CB
     FM301000 VRB04KT 3SM SHRA BR VCTS OVC015CB=

USA.gov is the U.S. government's official web portal to all federal, state and local government web resources and services.